Regional Weather Roundup
Issued by NWS

Home | Current Version | Previous Version | Text Only | Print | Product List | Glossary Off
Versions: 1 2 3 4 5 6 7 8 9 10 11 12 13 14 15 16 17 18 19 20 21 22 23 24 25 26 27 28

000
ASUS45 KPSR 201710
RWRAZ

ARIZONA HOURLY REGIONAL WEATHER ROUNDUP
NATIONAL WEATHER SERVICE PHOENIX AZ
1000 AM MST MON FEB 20 2017

NOTE: FAIR INDICATES FEW OR NO CLOUDS BELOW 12,000 FEET WITH NO
SIGNIFICANT WEATHER AND/OR OBSTRUCTIONS TO VISIBILITY.

AZZ001>003-036-201800-
NORTHWEST ARIZONA

CITY           SKY/WX    TMP DP  RH WIND       PRES   REMARKS
BULLHEAD CITY  CLOUDY    59  50  72 SW8       30.25R
KINGMAN        CLOUDY    51  37  58 CALM      30.24R
$$

AZZ004>008-015-016-018-201800-
NORTH CENTRAL ARIZONA

CITY           SKY/WX    TMP DP  RH WIND       PRES   REMARKS
GRAND CANYON   CLOUDY    38  35  89 SW9       30.29R WCI  31
WILLIAMS       CLOUDY    39  34  81 W5        30.29R
PRESCOTT       PTSUNNY   45  40  82 SE3       30.29R
FLAGSTAFF      CLOUDY    37  32  82 NW8       30.29R WCI  31
PAYSON         MOSUNNY   43  39  87 CALM      30.31R
PAGE           PTSUNNY   47  32  56 CALM      30.22R
$$

AZZ009>014-017-201800-
NORTHEAST ARIZONA

CITY           SKY/WX    TMP DP  RH WIND       PRES   REMARKS
WINSLOW        SUNNY     47  35  63 CALM      30.27R
SAINT JOHNS    CLOUDY    42  31  64 CALM      30.27R
WINDOW ROCK    CLOUDY    38  30  73 CALM      30.27R
SHOW LOW       MOSUNNY   37  28  70 CALM      30.29R
$$

AZZ023-201800-
GREATER PHOENIX AREA

CITY           SKY/WX    TMP DP  RH WIND       PRES   REMARKS
PHOENIX        MOSUNNY   58  49  72 E5        30.25R
BUCKEYE        SUNNY     57  57 100 CALM      30.27R
GLENDALE       MOSUNNY   57  57 100 CALM      30.28R
LUKE AFB       SUNNY     58  56  93 CALM      30.26R
DEER VALLEY    CLOUDY    56  51  84 CALM      30.26R
SCOTTSDALE     SUNNY     58  50  75 S3        30.23R
MESA-FALCON    MOSUNNY  N/A N/A N/A N6        30.24R
MESA-GATEWAY   MOSUNNY   55  50  82 VRB5      30.27R
CHANDLER       SUNNY     57  52  82 VRB5      30.27R
$$

AZZ027-028-201800-
SOUTHWEST MARICOPA COUNTY AND PINAL COUNTY

CITY           SKY/WX    TMP DP  RH WIND       PRES   REMARKS
CASA GRANDE    NOT AVBL
GILA BEND      FAIR      57  52  84 CALM      30.26R
$$

AZZ503-504-507>509-201800-
SOUTHEAST ARIZONA

CITY           SKY/WX    TMP DP  RH WIND       PRES   REMARKS
TUCSON         SUNNY     56  47  71 S5        30.28R
DAVIS-MONTHAN  SUNNY     56  47  71 S5        30.27R
RYAN FIELD     SUNNY     55  50  82 CALM      30.28R
NOGALES        SUNNY     51  44  77 SE3       30.27R
SIERRA VISTA   MOSUNNY   49  37  64 CALM      30.29R
DOUGLAS        CLOUDY    52  42  69 VRB6      30.29R
SAFFORD        MOSUNNY   55  44  66 W7        30.25R
$$

AZZ020-021-025-026-031-201800-
SOUTHWEST ARIZONA

CITY           SKY/WX    TMP DP  RH WIND       PRES   REMARKS
YUMA           SUNNY     62  53  72 SE5       30.24R
$$

CAZ031-033-041-043-047-048-061-201800-
SOUTHERN CALIFORNIA

CITY           SKY/WX    TMP DP  RH WIND       PRES   REMARKS
DOWNTOWN L.A.  CLOUDY    55  52  89 E7        30.26R FOG
L.A. AIRPORT   CLOUDY    54  53  97 E13       30.27R FOG
SAN DIEGO      PTSUNNY   60  46  59 CALM      30.28R
BURBANK        CLOUDY    52  50  93 SE9       30.25R
ONTARIO        DRIZZLE   52  50  93 VRB3      30.27R FOG
RIVERSIDE      CLOUDY    53  52  96 NE3       30.28R
PALM SPRINGS   MOSUNNY   61  51  70 VRB7      30.25R
EL CENTRO NAS  PTSUNNY   59  54  83 SE7       30.24R
IMPERIAL         N/A    N/A N/A N/A MISG      30.22R
BLYTHE         SUNNY     58  53  84 S6        30.24R
NEEDLES        CLOUDY    61  49  64 E3        30.24R
$$

NVZ020-UTZ003-201800-
SOUTHERN NEVADA-UTAH

CITY           SKY/WX    TMP DP  RH WIND       PRES   REMARKS
LAS VEGAS      PTSUNNY   59  44  57 SE10      30.15R
SALT LAKE CITY PTSUNNY   50  33  52 S25G37    30.03R
$$

NMZ009-TXZ055-201800-
NEW MEXICO-WEST TEXAS

CITY           SKY/WX    TMP DP  RH WIND       PRES   REMARKS
ALBUQUERQUE    PTSUNNY   49  32  52 NW21      30.24R
EL PASO        MOSUNNY   56  32  40 W13       30.19R
$$


........................KEY........................
SKY/WX - SKY CONDITION/WEATHER
TMP    - TEMPERATURE IN FAHRENHEIT
DP     - DEW POINT IN FAHRENHEIT
RH     - RELATIVE HUMIDITY IN PERCENT
WIND   - DIRECTION AND SPEED IN MILES PER HOUR (MPH)
VRB    - VARIABLE WIND DIRECTION
PRES   - MEAN SEA LEVEL PRESSURE IN INCHES OF MERCURY
         F - FALLING PRESSURE   R - RISING PRESSURE
         S - STEADY PRESSURE
VSB    - VISIBILITY IN MILES
HX     - HEAT INDEX IN FAHRENHEIT
WCI    - WIND CHILL INDEX IN FAHRENHEIT
TC     - TEMPERATURE IN CELSIUS WHICH IS ALSO KNOWN AS
         TEMPERATURE IN CENTIGRADE
AFB    - AIR FORCE BASE
         LUKE AFB IS LUKE AIR FORCE BASE
         DAVIS-MONTHAN IS DAVIS-MONTHAN AIR FORCE BASE
NAS    - NAVAL AIR STATION
         EL CENTRO NAS IS EL CENTRO NAVAL AIR STATION
N/A    - NOT AVAILABLE





USA.gov is the U.S. government's official web portal to all federal, state and local government web resources and services.